This is the latest recevied weather packets stored in our database for station/object KG5WBN. If no packets are shown the sender has not sent any weather packets the latest 10 day(s).
| Time | Temp. | Humidity | Pressure | Rain* | Wind** | Luminosity | Snow |
|---|---|---|---|---|---|---|---|
| 1787585192 | 32.22° C | 56% | 1015.9 hPa | 0 mm | - | 263 W/m² | - |
| 1787584887 | 33.33° C | 55% | 1015.6 hPa | 0 mm | - | 276 W/m² | - |
| 1787584586 | 32.22° C | 58% | 1015.6 hPa | 0 mm | - | 115 W/m² | - |
| 1787584280 | 31.67° C | 58% | 1015.6 hPa | 0 mm | - | 256 W/m² | - |
| 1787583979 | 32.22° C | 58% | 1015.6 hPa | 0 mm | - | 99 W/m² | - |
| 1787583675 | 31.67° C | 60% | 1015.2 hPa | 0 mm | - | 194 W/m² | - |
| 1787583369 | 32.22° C | 59% | 1015.2 hPa | 0 mm | - | 124 W/m² | - |
| 1787583067 | 32.78° C | 59% | 1015.2 hPa | 0 mm | - | 153 W/m² | - |
| 1787582757 | 32.78° C | 54% | 1015.2 hPa | 0 mm | - | 207 W/m² | - |
| 1787582453 | 32.22° C | 55% | 1015.2 hPa | 0 mm | - | 168 W/m² | - |
| 1787582148 | 32.22° C | 53% | 1015.6 hPa | 0 mm | - | 149 W/m² | - |
| 1787581842 | 32.22° C | 53% | 1015.6 hPa | 0 mm | - | 149 W/m² | - |
| 1787581538 | 32.22° C | 56% | 1015.2 hPa | 0 mm | - | 157 W/m² | - |
| 1787581237 | 32.22° C | 56% | 1015.2 hPa | 0 mm | - | 161 W/m² | - |
| 1787580937 | 31.67° C | 56% | 1015.2 hPa | 0 mm | - | 141 W/m² | - |
| 1787580633 | 31.67° C | 65% | 1015.2 hPa | 0 mm | - | 133 W/m² | - |
| 1787580329 | 30.56° C | 71% | 1015.2 hPa | 0 mm | - | 118 W/m² | - |
| 1787580025 | 30° C | 76% | 1015.2 hPa | 0 mm | - | 104 W/m² | - |
| 1787579723 | 29.44° C | 76% | 1015.2 hPa | 0 mm | - | 87 W/m² | - |
| 1787579418 | 30° C | 78% | 1015.2 hPa | 0 mm | - | 69 W/m² | - |
| 1787579114 | 29.44° C | 78% | 1015.6 hPa | 0 mm | - | 57 W/m² | - |
| 1787578809 | 28.89° C | 82% | 1015.2 hPa | 0 mm | - | 52 W/m² | - |
| 1787578505 | 28.89° C | 83% | 1015.2 hPa | 0 mm | - | 54 W/m² | - |
| 1787578204 | 28.89° C | 84% | 1015.6 hPa | 0 mm | - | 48 W/m² | - |
| 1787577900 | 28.89° C | 86% | 1015.2 hPa | 0 mm | - | 46 W/m² | - |
* Rain latest hour (hover to see other rain measurements)
** Current wind speed in m/s (hover to see current wind gust speed)